Regional Weather Roundup
Issued by NWS Midland/Odessa, TX

Skip options and go directly to product.
Home | Oldest Version | Previous Version | Current Version | All | Graphics & Text | Save Text | Print | Product List | Glossary On

Skip product version selection by date and time.   
179
ASUS44 KMAF 261710
RWRMAF
MIDLAND AREA WEATHER ROUNDUP
NATIONAL WEATHER SERVICE MIDLAND TX
1100 AM CST SUN FEB 26 2017

...IN SOUTHWEST TEXAS AND SOUTHEAST NEW MEXICO...

CITY           SKY/WX    TMP DP  RH WIND       PRES   REMARKS
ALPINE         SUNNY     65  11  12 W15G22    30.04S
ANDREWS        FAIR      63  16  16 W8        29.92S
ARTESIA        SUNNY     59  16  18 NE6       29.91F
BIG SPRING     SUNNY     62  35  37 S17       29.95S
CARLSBAD         N/A     65   7  10 W16       29.90F
DRYDEN           N/A     59  38  45 CALM      29.97S
FORT STOCKTON  SUNNY     67   9  10 SW5       29.95S
GUAD PASS      MOSUNNY   55   7  14 W30         N/A
HOBBS          MOSUNNY   63   9  12 W15       29.93R
MARFA          SUNNY     63  13  14 W18G25    30.02R
MIDLAND AIRPK  SUNNY     63  26  25 S12       29.93F
MIDLAND INTL   SUNNY     62  27  26 SW14      29.93S
ODESSA           N/A     62  24  23 SW14      29.94S
PECOS          SUNNY     67  10  11 W7        29.93S
PRESIDIO       FAIR      61  14  15 SE5       30.00F
SEMINOLE       SUNNY     61  20  20 NW9G16    29.93S
SNYDER         SUNNY     56  40  54 SW14      29.94S
WINK           CLOUDY    59  19  21 SW3       29.92F
$$
...OTHER STATIONS IN TEXAS...

CITY           SKY/WX    TMP DP  RH WIND       PRES   REMARKS
ABILENE        SUNNY     59  47  64 SW29G41   29.89S
AMARILLO       SUNNY     51  16  24 N7        29.89S
AUSTIN         CLOUDY    56  45  66 CALM      30.00F
BROWNSVILLE    LGT RAIN  75  70  83 MISG      29.96
CORPUS CHRISTI CLOUDY    74  64  71 S22       29.98S
DALLAS FTW     CLOUDY    58  41  53 S13       29.97F
DEL RIO        CLOUDY    57  51  80 E7        29.98S
EL PASO        PTSUNNY   56   8  14 S6        29.97S
HOUSTON INT    PTSUNNY   71  55  56 SE17G29   30.05S
LUBBOCK        MOSUNNY   60  11  14 NW15      29.90S
SAN ANGELO     SUNNY     64  51  62 S24G31    29.94F
SAN ANTONIO    CLOUDY    61  54  77 S6        29.99S
WACO           CLOUDY    53  43  68 S13       30.02R
WICHITA FALLS  NOT AVBL
$$
...OTHER LOCATIONS IN NEW MEXICO...

CITY           SKY/WX    TMP DP  RH WIND       PRES   REMARKS
ALAMAGORDO     PTSUNNY   50  12  22 SE5       29.97S
ALBUQUERQUE    PTSUNNY   39  21  48 SW8       29.98S WCI  33
CANNON AFB     SUNNY     52  14  22 W29G35    29.89F
CLOVIS         SUNNY     54  18  24 NW23G33   29.90S
HOLLOMAN AFB   PTSUNNY   56   6  13 E7        29.98F
ROSWELL        SUNNY     55  10  16 N10         N/A
RUIDOSO        CLOUDY    46   7  19 NW18G26   29.96S WCI  39
SANTA FE       MOSUNNY   38  18  44 SW12      29.92S WCI  30
TRUTH OR CONSE CLOUDY    48  11  22 E5        29.94S
TUCUMCARI      SUNNY     52  10  18 W8        29.89R
$$